Weather in Pittsburgh

United States     40°26′26″N   79°59′47″W
temp.,
°C
wind,
m/s
gust,
m/s
humid.,
%
clouds,
%
prec.,
mm/h
press.,
hPa
HPBL,
m
26 may, thu
thu2623:00+17se5127697 0.0 1020506
02:00+15se31082100 0.0 1020339
05:00+14se2691100 0.0 1019180
08:00+16sse377866 0.0 1019267
11:00+18s3986100 0.3 1018558
14:00+19ssw1787100 0.4 1017324
17:00+23sw157788 0.8 1014509
20:00+19sse119298 2.4 101319
27 may, fri
fri2723:00+18se2397100 0.2 101380
02:00+17sse41397100 2.3 1011899
05:00+17s31198100 0.8 1010597
08:00+17sw399598 1.8 1011645
11:00+21sw4764100 0.0 10101204
14:00+24sw3647100 0.0 10081922
17:00+22wsw2458100 0.0 1007684
20:00+16wsw41293100 1.2 1009554
28 may, sat
sat2823:00+15ssw3898100 3.6 1009522
02:00+13ssw3898100 6.5 1008440
05:00+13sw2698100 0.3 1008480
08:00+13sw2597100 0.5 1010418
11:00+14wsw2497100 0.4 1011412
14:00+19wsw2376100 0.7 10111029
17:00+19wnw248235 1.3 1011844
20:00+17w2791100 2.0 1013216
29 may, sun
sun2923:00+14nnw119597 0.1 101526
02:00+12ese119681 0.1 101610
05:00+11ese119791 0.0 101710
08:00+15sse129099 0.0 1018142
11:00+21s2362100 0.0 1017939
14:00+24ssw244980 0.0 10161345
17:00+26ssw244733 0.0 10151295
20:00+21se117249 0.0 101511
30 may, mon
mon3023:00+18sse1179100 0.0 101711
02:00+17sse117961 0.0 101716
05:00+16s2278100 0.0 101834
08:00+19ssw2773100 0.0 1020212
11:00+25sw4861100 0.0 1019779
14:00+29wsw5748100 0.0 10181346
17:00+30wsw474691 0.0 10171522
20:00+24wsw25745 0.0 1018114